TimeMDT,TemperatureF,Dew PointF,Humidity,Sea Level PressureIn,VisibilityMPH,Wind Direction,Wind SpeedMPH,Gust SpeedMPH,PrecipitationIn,Events,Conditions,WindDirDegrees,DateUTC
12:15 AM,51.8,41.0,67,30.28,10.0,West,5.8,-,N/A,,Clear,280,2013-07-25 06:15:00
12:35 AM,53.6,42.8,67,30.27,10.0,Calm,Calm,-,N/A,,Clear,0,2013-07-25 06:35:00
12:55 AM,53.6,42.8,67,30.27,10.0,Calm,Calm,-,N/A,,Clear,0,2013-07-25 06:55:00
1:15 AM,55.4,42.8,63,30.27,10.0,NNW,3.5,-,N/A,,Clear,340,2013-07-25 07:15:00
1:35 AM,50.0,41.0,71,30.27,10.0,West,5.8,-,N/A,,Clear,280,2013-07-25 07:35:00
1:55 AM,53.6,41.0,62,30.27,10.0,WNW,3.5,-,N/A,,Clear,300,2013-07-25 07:55:00
2:15 AM,55.4,41.0,58,30.27,10.0,NW,5.8,-,N/A,,Clear,310,2013-07-25 08:15:00
2:35 AM,53.6,42.8,67,30.26,10.0,Calm,Calm,-,N/A,,Clear,0,2013-07-25 08:35:00
2:55 AM,51.8,42.8,71,30.27,10.0,NW,5.8,-,N/A,,Clear,320,2013-07-25 08:55:00
3:15 AM,50.0,42.8,76,30.27,10.0,West,5.8,-,N/A,,Clear,270,2013-07-25 09:15:00
3:35 AM,50.0,42.8,76,30.27,10.0,West,4.6,-,N/A,,Clear,280,2013-07-25 09:35:00
3:55 AM,50.0,42.8,76,30.27,10.0,NNW,4.6,-,N/A,,Clear,330,2013-07-25 09:55:00
4:15 AM,50.0,42.8,76,30.27,10.0,Calm,Calm,-,N/A,,Clear,0,2013-07-25 10:15:00
4:35 AM,51.8,42.8,71,30.27,10.0,Calm,Calm,-,N/A,,Clear,0,2013-07-25 10:35:00
4:55 AM,48.2,42.8,82,30.27,10.0,WSW,4.6,-,N/A,,Clear,250,2013-07-25 10:55:00
5:15 AM,50.0,41.0,71,30.27,10.0,WNW,4.6,-,N/A,,Clear,290,2013-07-25 11:15:00
5:35 AM,50.0,42.8,76,30.29,10.0,NW,3.5,-,N/A,,Clear,310,2013-07-25 11:35:00
5:55 AM,50.0,42.8,76,30.28,10.0,West,4.6,-,N/A,,Clear,280,2013-07-25 11:55:00
6:15 AM,51.8,44.6,76,30.29,10.0,NW,4.6,-,N/A,,Clear,320,2013-07-25 12:15:00
6:35 AM,51.8,44.6,76,30.29,10.0,NW,4.6,-,N/A,,Clear,320,2013-07-25 12:35:00
6:55 AM,51.8,42.8,71,30.29,10.0,West,4.6,-,N/A,,Clear,280,2013-07-25 12:55:00
7:15 AM,51.8,42.8,71,30.30,10.0,West,5.8,-,N/A,,Clear,280,2013-07-25 13:15:00
7:35 AM,53.6,42.8,67,30.30,10.0,West,5.8,-,N/A,,Scattered Clouds,280,2013-07-25 13:35:00
7:55 AM,55.4,42.8,63,30.31,10.0,NNW,4.6,-,N/A,,Mostly Cloudy,330,2013-07-25 13:55:00
8:15 AM,55.4,42.8,63,30.31,10.0,NW,6.9,-,N/A,,Overcast,310,2013-07-25 14:15:00
8:35 AM,59.0,42.8,55,30.32,10.0,West,8.1,-,N/A,,Mostly Cloudy,280,2013-07-25 14:35:00
8:55 AM,59.0,42.8,55,30.32,10.0,NNW,4.6,-,N/A,,Overcast,330,2013-07-25 14:55:00
9:15 AM,60.8,42.8,52,30.32,10.0,West,3.5,-,N/A,,Scattered Clouds,270,2013-07-25 15:15:00
9:35 AM,62.6,44.6,52,30.32,10.0,Calm,Calm,-,N/A,,Scattered Clouds,0,2013-07-25 15:35:00
9:55 AM,68.0,41.0,37,30.31,10.0,SE,5.8,-,N/A,,Mostly Cloudy,130,2013-07-25 15:55:00
10:15 AM,69.8,41.0,35,30.32,10.0,South,9.2,-,N/A,,Mostly Cloudy,190,2013-07-25 16:15:00
10:35 AM,73.4,37.4,27,30.32,10.0,SE,4.6,-,N/A,,Scattered Clouds,140,2013-07-25 16:35:00
10:55 AM,73.4,35.6,25,30.32,10.0,SE,4.6,-,N/A,,Scattered Clouds,130,2013-07-25 16:55:00
11:15 AM,75.2,37.4,25,30.33,10.0,NW,9.2,-,N/A,,Clear,320,2013-07-25 17:15:00
11:35 AM,75.2,41.0,29,30.33,10.0,West,8.1,-,N/A,,Clear,270,2013-07-25 17:35:00
11:55 AM,73.4,39.2,29,30.33,10.0,Calm,Calm,-,N/A,,Clear,0,2013-07-25 17:55:00
12:15 PM,75.2,35.6,24,30.33,10.0,South,5.8,-,N/A,,Clear,170,2013-07-25 18:15:00
12:35 PM,75.2,35.6,24,30.33,10.0,SSE,4.6,-,N/A,,Clear,150,2013-07-25 18:35:00
12:55 PM,77.0,32.0,19,30.33,10.0,Calm,Calm,-,N/A,Thunderstorm,Clear,0,2013-07-25 18:55:00
1:15 PM,77.0,32.0,19,30.32,10.0,South,9.2,-,N/A,,Clear,170,2013-07-25 19:15:00
1:35 PM,78.8,33.8,20,30.32,10.0,ESE,6.9,-,N/A,,Scattered Clouds,110,2013-07-25 19:35:00
1:55 PM,77.0,33.8,21,30.32,10.0,SSE,5.8,-,N/A,,Scattered Clouds,160,2013-07-25 19:55:00
2:15 PM,77.0,32.0,19,30.32,10.0,Calm,Calm,-,N/A,,Mostly Cloudy,0,2013-07-25 20:15:00
2:35 PM,77.0,32.0,19,30.32,10.0,East,3.5,-,N/A,,Mostly Cloudy,90,2013-07-25 20:35:00
2:55 PM,71.6,37.4,29,30.33,10.0,WSW,15.0,23.0,N/A,Rain,Light Rain,240,2013-07-25 20:55:00
3:15 PM,73.4,35.6,25,30.34,10.0,SW,5.8,18.4,N/A,,Overcast,230,2013-07-25 21:15:00
3:35 PM,71.6,35.6,27,30.35,10.0,Calm,Calm,-,N/A,,Overcast,0,2013-07-25 21:35:00
3:55 PM,66.2,46.4,49,30.35,7.0,NNE,18.4,23.0,N/A,Rain,Light Rain,30,2013-07-25 21:55:00
4:15 PM,68.0,44.6,43,30.34,7.0,East,8.1,25.3,N/A,Rain,Light Rain,100,2013-07-25 22:15:00
4:35 PM,71.6,44.6,38,30.36,10.0,NNE,19.6,26.5,N/A,,Mostly Cloudy,30,2013-07-25 22:35:00
4:55 PM,71.6,41.0,33,30.35,10.0,ENE,18.4,25.3,N/A,,Mostly Cloudy,70,2013-07-25 22:55:00
5:15 PM,71.6,41.0,33,30.34,10.0,East,16.1,23.0,N/A,,Scattered Clouds,100,2013-07-25 23:15:00
5:35 PM,71.6,39.2,31,30.33,10.0,East,16.1,21.9,N/A,,Clear,90,2013-07-25 23:35:00
5:55 PM,73.4,37.4,27,30.32,10.0,ESE,11.5,-,N/A,,Clear,110,2013-07-25 23:55:00
6:15 PM,71.6,39.2,31,30.32,10.0,SE,9.2,-,N/A,,Clear,130,2013-07-26 00:15:00
6:35 PM,71.6,39.2,31,30.32,10.0,East,5.8,-,N/A,,Clear,90,2013-07-26 00:35:00
6:55 PM,73.4,35.6,25,30.33,10.0,ESE,4.6,-,N/A,,Clear,110,2013-07-26 00:55:00
7:15 PM,71.6,37.4,29,30.34,10.0,SE,6.9,-,N/A,,Clear,140,2013-07-26 01:15:00
7:35 PM,71.6,37.4,29,30.33,10.0,SE,6.9,-,N/A,,Clear,130,2013-07-26 01:35:00
7:55 PM,69.8,37.4,31,30.33,10.0,SE,4.6,-,N/A,,Clear,130,2013-07-26 01:55:00
8:15 PM,68.0,37.4,33,30.33,10.0,Calm,Calm,-,N/A,,Clear,0,2013-07-26 02:15:00
8:35 PM,66.2,37.4,35,30.34,10.0,SE,3.5,-,N/A,,Clear,130,2013-07-26 02:35:00
8:55 PM,64.4,37.4,37,30.34,10.0,Calm,Calm,-,N/A,,Clear,0,2013-07-26 02:55:00
9:15 PM,64.4,39.2,40,30.35,10.0,Calm,Calm,-,N/A,,Clear,0,2013-07-26 03:15:00
9:35 PM,60.8,42.8,52,30.36,10.0,Calm,Calm,-,N/A,,Clear,0,2013-07-26 03:35:00
9:55 PM,60.8,41.0,48,30.37,10.0,Calm,Calm,-,N/A,,Clear,0,2013-07-26 03:55:00
10:15 PM,62.6,41.0,45,30.37,10.0,Calm,Calm,-,N/A,,Scattered Clouds,0,2013-07-26 04:15:00
10:35 PM,59.0,41.0,51,30.39,10.0,Calm,Calm,-,N/A,,Clear,0,2013-07-26 04:35:00
10:55 PM,59.0,41.0,51,30.39,10.0,ENE,3.5,-,N/A,,Clear,70,2013-07-26 04:55:00
11:15 PM,55.4,42.8,63,30.40,10.0,NE,4.6,-,N/A,,Clear,50,2013-07-26 05:15:00
11:35 PM,55.4,44.6,67,30.41,10.0,Calm,Calm,-,N/A,,Scattered Clouds,0,2013-07-26 05:35:00
11:55 PM,53.6,42.8,67,30.42,10.0,Calm,Calm,-,N/A,,Mostly Cloudy,0,2013-07-26 05:55:00